User: anonymous   Login
Location: Caltech
(34.1382°N, 118.1253°W)
Time: 13:48:52
(UTC-08:00)
Language:

SL-16 R/B - Orbit

View from above orbital plane
View from above orbital plane
View from above satellite
View from above satellite

Ground track
Ground track

The orbit data is extracted from the following two-line orbital elements,

1 28353U 04021B   14331.19464147 -.00000236  00000-0 -98908-4 0  8929
2 28353 071.0009 234.9865 0005200 203.0624 308.4166 14.14101211540262
Epoch (UTC): 27 November 2014 04:40:17
Eccentricity: 0.0005200
inclination: 71.0009°
perigee height: 841 km
apogee height: 849 km
right ascension of ascending node: 234.9865°
argument of perigee: 203.0624°
revolutions per day: 14.14101211
mean anomaly at epoch: 308.4166°
orbit number at epoch: 54026

The dashed part of the orbit path shows where the satellite is in the earth's shadow,  

DLR